sat.trackr.live / text

‹ back to catalog

HJS-6B

NORAD 63429 · 2025-067B

PAYLOAD ACTIVE UNKNOWN

§ Identity

Operator
Country
PRC
Launch date
2025-04-01
Launch site
JSC
Launch vehicle
Mass (kg)
RCS (m²)

External: N2YO · Heavens-Above · Gunter

§ Orbital elements

Epoch: 2026-09-21T18:50:43.838304Z

Period
94.78 min
Inclination
54.9999°
Eccentricity
0.0004877
Mean motion
15.19289030 rev/d
Perigee alt
504.6 km
Apogee alt
511.3 km
Semi-major
6,886.1 km
B*
4.6198e-4
RAAN
325.5012°
Arg perigee
183.1520°
Mean anomaly
176.9469°
Rev number
8,262

§ Raw data

HJS-6B1 63429U 25067B   26264.78522961  .00009558  00000+0  46198-3 0  99912 63429  54.9999 325.5012 0004877 183.1520 176.9469 15.19289030 82623

JSON: /api/v1/satellites/63429 · /tle

For live sub-satellite position, see the globe view (requires WebGL).

§ Visibility from observer

Set your observer location to see the next 7 days of passes ≥ 10°. The values pass through the URL so the page stays shareable.

No JS? Fill the form by hand. The geolocation button needs JavaScript.

§ Radio — SatNOGS DB

ModeDescriptionDownlinkUplink
FM S-band telemetry 2.244 GHz

1 transmitter · refreshed weekly from db.satnogs.org